TimeMDT,TemperatureF,Dew PointF,Humidity,Sea Level PressureIn,VisibilityMPH,Wind Direction,Wind SpeedMPH,Gust SpeedMPH,PrecipitationIn,Events,Conditions,WindDirDegrees,DateUTC
12:53 AM,50.0,33.1,52,29.95,10.0,Calm,Calm,-,N/A,,Clear,0,2013-06-23 06:53:00
1:53 AM,48.9,32.0,52,29.94,10.0,East,4.6,-,N/A,,Clear,90,2013-06-23 07:53:00
2:53 AM,46.0,32.0,58,29.93,10.0,East,4.6,-,N/A,,Clear,80,2013-06-23 08:53:00
3:53 AM,43.0,30.9,62,29.92,10.0,Calm,Calm,-,N/A,,Clear,0,2013-06-23 09:53:00
4:53 AM,39.9,30.9,70,29.93,10.0,Calm,Calm,-,N/A,,Clear,0,2013-06-23 10:53:00
5:53 AM,41.0,32.0,70,29.92,10.0,Calm,Calm,-,N/A,,Clear,0,2013-06-23 11:53:00
6:53 AM,43.0,33.1,68,29.92,10.0,Calm,Calm,-,N/A,,Clear,0,2013-06-23 12:53:00
7:53 AM,52.0,32.0,47,29.89,10.0,Calm,Calm,-,N/A,,Clear,0,2013-06-23 13:53:00
8:53 AM,57.9,36.0,44,29.90,10.0,NW,4.6,-,N/A,,Clear,310,2013-06-23 14:53:00
9:53 AM,64.0,33.1,31,29.87,10.0,East,3.5,-,N/A,,Clear,80,2013-06-23 15:53:00
10:53 AM,71.1,30.0,22,29.85,10.0,NNE,5.8,-,N/A,,Clear,30,2013-06-23 16:53:00
11:53 AM,73.0,30.9,21,29.82,10.0,Calm,Calm,-,N/A,,Clear,0,2013-06-23 17:53:00
12:53 PM,77.0,30.0,18,29.79,10.0,NW,8.1,-,N/A,,Clear,310,2013-06-23 18:53:00
1:53 PM,77.0,28.0,17,29.77,10.0,NW,5.8,-,N/A,,Clear,310,2013-06-23 19:53:00
2:53 PM,79.0,27.0,15,29.74,10.0,NNW,6.9,-,N/A,,Partly Cloudy,330,2013-06-23 20:53:00
3:53 PM,81.0,26.1,13,29.72,10.0,NW,8.1,-,N/A,,Partly Cloudy,310,2013-06-23 21:53:00
4:53 PM,81.0,30.9,16,29.69,10.0,NW,9.2,-,N/A,,Partly Cloudy,320,2013-06-23 22:53:00
5:53 PM,81.0,30.0,16,29.67,10.0,North,6.9,-,N/A,,Partly Cloudy,360,2013-06-23 23:53:00
6:53 PM,81.0,30.9,16,29.64,10.0,North,8.1,-,N/A,,Partly Cloudy,360,2013-06-24 00:53:00
7:53 PM,75.9,37.0,24,29.63,10.0,ENE,6.9,-,N/A,,Partly Cloudy,60,2013-06-24 01:53:00
8:53 PM,71.1,39.9,32,29.61,10.0,ENE,8.1,-,N/A,,Clear,60,2013-06-24 02:53:00
9:53 PM,69.1,37.9,32,29.60,10.0,Variable,3.5,-,N/A,,Clear,0,2013-06-24 03:53:00
10:53 PM,66.9,36.0,32,29.59,10.0,East,5.8,-,N/A,,Clear,90,2013-06-24 04:53:00
11:53 PM,64.0,35.1,34,29.57,10.0,East,3.5,-,N/A,,Clear,100,2013-06-24 05:53:00